User: anonymous   Login
Location: Balaclava NSW 2575, Australia
(34.4510°S, 150.4953°E)
Time: 12:15:36
(UTC+10:00)
Language:

Courier 1B Rocket - Orbit

View from above orbital plane
View from above orbital plane
View from above satellite
View from above satellite

Ground track
Ground track

The orbit data is extracted from the following two-line orbital elements,

1 00059U 60013B   21163.46090586  .00000089  00000-0  45119-5 0  9997
2 00059  28.2459 168.9163 0189297  67.8518 294.2004 13.52986240995106
Epoch (UTC): 12 June 2021 11:03:42
Eccentricity: 0.0189297
inclination: 28.2459°
perigee height: 920 km
apogee height: 1202 km
right ascension of ascending node: 168.9163°
argument of perigee: 67.8518°
revolutions per day: 13.52986240
mean anomaly at epoch: 294.2004°
orbit number at epoch: 99510

The dashed part of the orbit path shows where the satellite is in the earth's shadow,  

DLR